Change the Weather History Date:

Sunday, November 24, 2013

  Actual Average (KCAK) Record (KCAK)
Temperature  
Mean Temperature 20 °F 38 °F  
Max Temperature 21 °F 45 °F 68 °F (1931)
Min Temperature 18 °F 31 °F 7 °F (1950)
Degree Days  
Heating Degree Days 46 27  
Month to date heating degree days 535  
Since 1 July heating degree days 1090  
Cooling Degree Days 0 0  
Month to date cooling degree days 0  
Year to date cooling degree days 652  
Moisture  
Dew Point 8 °F    
Average Humidity 61    
Maximum Humidity 80    
Minimum Humidity 52    
Precipitation  
Precipitation 0.00 in 0.11 in 0.52 in (1992)
Month to date precipitation 2.65  
Year to date precipitation 36.13  
Snow  
Snow 0.00 in 0.10 in - ()
Month to date snowfall 2.0  
Since 1 July snowfall 2.4  
Since 1 September snowfall 2.4  
Snow Depth -    
Sea Level Pressure  
Sea Level Pressure 30.51 in    
Wind  
Wind Speed 15 mph (WNW)    
Max Wind Speed 23 mph    
Max Gust Speed 30 mph    
Visibility 9 miles    
Events Snow    
T = Trace of Precipitation, MM = Missing Value Source: NWS Daily Summary

Daily Weather History Graph

Daily Weather History Graph

Search for Another Location

Airport or City:

Trip Planner

Search our weather history database for the weather conditions in past years. The results will help you decide how hot, cold, wet, or windy it might be!

Date:

Astronomy

Nov. 24, 2013 Rise Set
Actual Time 7:24 AM EST 5:00 PM EST
Civil Twilight 6:53 AM EST 5:30 PM EST
Nautical Twilight 6:20 AM EST 6:04 PM EST
Astronomical Twilight 5:47 AM EST 6:37 PM EST
Moon 11:27 PM EST (11/24) 12:09 PM EST (11/24)
Length of Visible Light 10h 37m
Length of Day
9h 36m
Waning Gibbous, 61% of the Moon is Illuminated
Nov 24
Waning Gibbous
Nov 25
Last Quarter
Dec 2
New
Dec 9
First Quarter
Dec 17
Full

Hourly Weather History & Observations

Time (EST) Temp. Windchill Dew Point Humidity Pressure Visibility Wind Dir Wind Speed Gust Speed Precip Events Conditions
12:54 AM 19.0 °F 4.0 °F 6.1 °F 57% 30.43 in 10.0 mi NW 17.3 mph - N/A   Overcast
1:54 AM 19.0 °F 2.7 °F 3.9 °F 52% 30.43 in 10.0 mi NW 20.7 mph 29.9 mph N/A   Overcast
2:54 AM 19.0 °F 4.5 °F 3.9 °F 52% 30.45 in 10.0 mi NW 16.1 mph 23.0 mph N/A   Overcast
3:54 AM 19.0 °F 2.0 °F 5.0 °F 54% 30.45 in 10.0 mi NW 23.0 mph 27.6 mph N/A   Overcast
4:54 AM 19.0 °F 5.0 °F 3.9 °F 52% 30.45 in 10.0 mi NW 15.0 mph 24.2 mph N/A   Overcast
5:54 AM 18.0 °F 3.1 °F 7.0 °F 62% 30.48 in 10.0 mi NW 16.1 mph 21.9 mph N/A   Mostly Cloudy
6:54 AM 18.0 °F 3.6 °F 6.1 °F 60% 30.50 in 10.0 mi NW 15.0 mph 24.2 mph N/A   Mostly Cloudy
7:54 AM 18.0 °F 4.8 °F 6.1 °F 60% 30.52 in 10.0 mi NW 12.7 mph 21.9 mph N/A   Mostly Cloudy
8:54 AM 19.0 °F 7.5 °F 8.1 °F 62% 30.54 in 10.0 mi WNW 10.4 mph - N/A   Overcast
9:54 AM 19.9 °F 5.2 °F 7.0 °F 57% 30.56 in 10.0 mi NW 17.3 mph 24.2 mph N/A   Overcast
10:54 AM 21.9 °F 8.2 °F 7.0 °F 53% 30.56 in 10.0 mi WNW 16.1 mph 21.9 mph N/A   Overcast
11:54 AM 21.0 °F 8.1 °F 8.1 °F 57% 30.56 in 10.0 mi NNW 13.8 mph 23.0 mph N/A   Overcast
12:54 PM 21.9 °F 9.2 °F 7.0 °F 53% 30.55 in 10.0 mi NW 13.8 mph 20.7 mph N/A   Mostly Cloudy
1:54 PM 21.0 °F 9.9 °F 10.9 °F 65% 30.54 in 6.0 mi NW 10.4 mph 19.6 mph 0.00 in Snow Light Snow
2:27 PM 19.4 °F 7.2 °F 14.0 °F 80% 30.49 in 1.2 mi WNW 11.5 mph - 0.00 in Snow Light Snow
2:32 PM 19.4 °F 7.9 °F 12.2 °F 74% 30.49 in 4.0 mi WNW 10.4 mph - 0.00 in Snow Light Snow
2:54 PM 21.0 °F 10.6 °F 10.0 °F 63% 30.54 in 9.0 mi WNW 9.2 mph - 0.00 in   Mostly Cloudy
3:54 PM 21.0 °F 8.6 °F 8.1 °F 57% 30.55 in 10.0 mi WNW 12.7 mph 20.7 mph N/A   Overcast
4:54 PM 19.9 °F 7.3 °F 6.1 °F 55% 30.56 in 10.0 mi West 12.7 mph - N/A   Overcast
5:54 PM 19.0 °F 10.0 °F 7.0 °F 59% 30.56 in 10.0 mi West 6.9 mph - N/A   Scattered Clouds
6:54 PM 19.0 °F 7.5 °F 8.1 °F 62% 30.55 in 10.0 mi WSW 10.4 mph - N/A   Clear
7:54 PM 18.0 °F 8.7 °F 9.0 °F 68% 30.55 in 10.0 mi WSW 6.9 mph - N/A   Clear
8:54 PM 18.0 °F 7.7 °F 9.0 °F 68% 30.52 in 10.0 mi SW 8.1 mph - N/A   Clear
9:54 PM 18.0 °F 7.7 °F 9.0 °F 68% 30.51 in 10.0 mi WSW 8.1 mph - N/A   Clear
10:54 PM 18.0 °F 7.7 °F 10.0 °F 71% 30.50 in 10.0 mi SW 8.1 mph - N/A   Clear
11:54 PM 18.0 °F 6.9 °F 10.0 °F 71% 30.50 in 10.0 mi SW 9.2 mph - N/A   Clear